Location: Unspecified
(0.0000°N, 0.0000°E)
Time: 16:11:26
(UTC+00:00)

CZ-3C DEB - Pass Details

Date: 13 March 2026
Orbit: 717 x 38360 km, 18.5° (Epoch: 25 March)

Event Time Altitude Azimuth Distance (km) Brightness Sun altitude
Rises 05:08:28 0° 72° (ENE) 43,223 ? -15.3°
Reaches altitude 10° 07:03:09 10° 74° (ENE) 35,371 ? 13.4°
Maximum altitude 07:36:19 11° 75° (ENE) 31,693 ? 21.7°
Drops below altitude 10° 08:03:49 10° 77° (ENE) 28,117 ? 28.5°
Sets 08:53:15 0° 82° (E) 20,552 ? 40.9°
